Vorticity
nan nan nan nan nan nan nan nan nan nan nan nan nan nan nan nan nan nan nan nan nan nan nan nan nan nan nan nan nan nan nan nan nan nan nan nan nan nan nan nan nan nan nan nan nan
nan 7 7 7 7 7 6 7 7 7 6 7 7 6 8 12 19 11 13 17 13 2 2 7 4 3 11 17 7 7 10 4 4 5 2 9 8 7 6 7 11 17 10 9 nan
nan 7 7 7 7 7 7 7 7 7 7 7 7 7 8 14 18 18 10 9 6 1 -5 -7 17 8 6 5 10 2 3 19 19 4 6 4 1 10 9 12 14 8 8 7 nan
nan 7 6 7 7 7 7 7 7 7 7 7 7 8 14 15 10 15 14 8 7 3 0 7 1 -9 4 16 10 3 5 21 13 6 12 7 11 6 9 13 10 7 6 7 nan
nan 6 6 7 7 7 7 7 7 7 7 8 9 13 17 9 14 12 10 10 8 4 3 13 -0 5 3 9 5 9 8 6 5 8 7 5 6 6 15 14 11 9 6 4 nan
nan 7 7 8 7 7 7 7 8 7 8 11 11 14 11 7 19 12 8 6 3 2 2 2 2 9 12 8 9 9 11 7 5 10 7 3 4 7 11 10 8 7 5 5 nan
nan 7 7 7 7 7 8 8 7 9 11 12 14 10 5 17 9 7 6 2 3 0 5 3 3 0 7 10 16 1 7 9 7 12 5 15 5 8 11 7 6 6 5 7 nan
nan 7 7 7 8 8 8 8 7 11 14 20 14 5 7 14 6 11 6 3 5 2 4 5 5 8 15 9 9 13 6 7 12 1 3 17 13 12 6 6 6 6 7 8 nan
nan 8 8 8 8 9 9 7 14 15 18 18 7 6 6 7 14 9 6 4 6 6 3 4 5 4 13 14 15 23 12 10 11 4 5 1 7 21 7 5 6 6 8 7 nan
nan 7 8 8 8 11 14 20 16 19 17 2 9 12 17 8 12 8 6 8 3 5 6 5 7 13 3 4 0 13 13 12 16 10 5 1 15 12 8 5 8 7 6 6 nan
nan 9 8 8 10 11 19 24 17 14 9 5 8 5 16 17 10 8 8 6 4 6 9 9 2 28 3 -10 -2 1 6 16 7 8 8 -2 24 11 8 6 8 8 6 8 nan
nan 10 10 10 11 11 13 3 2 11 21 11 4 10 4 13 10 11 9 5 6 7 5 8 11 8 3 10 7 4 13 5 10 21 4 6 15 8 5 9 6 9 7 8 nan
nan 11 11 10 14 16 6 6 4 13 21 24 6 7 8 5 5 10 7 6 7 6 7 1 22 8 1 7 11 11 6 -1 6 1 -3 16 5 10 18 7 7 12 9 8 nan
nan 12 10 12 17 16 11 5 5 10 19 21 10 13 10 3 19 14 6 2 4 12 13 6 5 -1 10 2 7 9 7 6 7 3 12 11 -2 -0 11 14 16 6 10 10 nan
nan 14 14 7 8 9 10 6 11 11 17 15 12 10 13 6 11 16 11 1 5 11 9 8 8 7 8 4 7 0 4 6 7 5 10 13 11 6 7 20 19 9 11 7 nan
nan 13 16 13 9 9 3 11 12 7 9 13 11 10 10 7 2 10 6 7 5 11 11 5 5 13 11 8 4 6 4 13 14 14 13 14 7 3 5 13 8 12 7 9 nan
nan 15 6 2 9 13 10 12 10 4 18 16 11 13 5 9 7 5 10 10 5 8 8 11 6 7 6 7 6 6 5 9 15 19 11 7 0 11 8 8 23 20 8 10 nan
nan 22 11 -0 5 9 10 11 9 12 16 13 16 10 5 8 9 9 7 5 5 3 11 19 21 13 8 7 4 5 7 8 13 10 7 3 10 13 -2 27 42 20 13 9 nan
nan 15 10 19 11 5 9 8 7 16 10 14 13 9 10 2 4 13 11 15 15 7 3 7 16 18 18 12 5 7 1 2 17 11 16 5 9 9 17 31 12 14 14 11 nan
nan 10 19 17 12 6 4 11 15 7 11 18 3 9 10 12 6 10 9 6 11 9 13 10 9 11 8 7 7 9 8 10 8 12 8 8 9 1 5 12 19 16 15 8 nan
nan 11 16 9 1 7 9 8 5 4 11 21 10 14 22 11 4 9 14 10 7 8 10 9 12 10 7 16 14 9 7 5 3 15 13 14 10 17 11 4 6 5 20 23 nan
nan 18 11 2 5 10 8 10 9 8 9 3 13 8 16 14 15 8 10 11 8 8 17 13 7 12 13 4 7 8 9 16 12 9 17 14 15 13 17 13 8 9 16 25 nan
nan 14 11 2 8 13 8 2 5 9 13 10 7 5 8 7 10 12 3 4 6 8 9 19 17 12 18 4 -3 6 7 9 13 10 9 11 11 8 8 6 7 10 10 15 nan
nan 12 11 5 8 8 13 10 13 8 4 7 11 14 10 8 6 9 6 6 3 11 9 7 6 14 12 10 12 15 6 6 9 7 11 13 8 9 8 8 9 8 7 10 nan
nan 8 6 7 7 6 13 15 7 9 11 18 8 6 9 15 16 10 10 13 9 6 7 6 4 11 14 6 5 11 22 8 2 4 10 14 10 4 8 8 7 9 8 6 nan
nan 5 8 14 6 12 11 5 3 9 10 8 9 8 13 12 7 9 14 9 7 6 5 9 12 8 2 6 14 4 8 9 8 8 11 15 15 8 8 7 9 10 7 6 nan
nan nan nan nan nan nan nan nan nan nan nan nan nan nan nan nan nan nan nan nan nan nan nan nan nan nan nan nan nan nan nan nan nan nan nan nan nan nan nan nan nan nan nan nan nan
CAPE
5 5 5 4 3 3 4 2 2 2 1 1 1 0 2 2 0 0 0 13 175 1897 1910 1322 1307 660 641 791 26 0 137 196 67 237 158 41 102 39 89 241 955 889 1054 1254 1119
2 3 2 0 0 0 0 1 3 3 1 2 1 1 1 1 0 0 22 2212 1443 2081 1799 1174 1017 141 388 69 11 0 3 197 0 27 265 135 68 228 194 201 250 821 882 1111 1048
3 2 2 0 1 0 0 1 2 2 1 1 1 1 1 0 0 0 379 2430 1957 1927 1638 293 385 391 99 358 26 2 328 437 130 84 183 75 90 336 133 287 788 851 769 1150 1157
1 2 3 2 1 2 0 1 2 2 1 1 1 1 0 0 1 1 354 2138 2096 943 1194 873 434 247 314 130 101 155 437 480 368 648 235 241 214 571 353 233 528 626 478 707 1009
3 4 4 1 1 1 2 1 3 3 2 1 2 1 0 0 4 0 1322 1403 454 749 1439 194 131 154 183 61 137 326 461 625 525 638 441 211 338 251 57 199 456 569 541 558 497
1 2 1 1 4 1 2 2 1 2 1 2 2 0 0 0 33 0 0 294 118 718 431 20 0 0 23 69 134 198 443 544 642 689 722 496 400 376 54 165 319 463 518 472 436
1 2 2 2 2 1 2 3 2 1 1 3 2 0 0 0 81 0 0 20 283 169 121 16 2 0 12 123 37 214 496 572 627 654 530 507 370 561 111 68 177 241 261 280 314
1 2 2 2 3 1 2 2 1 0 0 2 1 0 0 0 24 13 14 147 134 20 79 9 1 0 32 164 70 155 511 784 741 770 0 66 647 857 265 129 141 188 86 68 106
1 1 1 1 1 1 1 0 0 0 0 0 0 0 0 0 4 35 106 122 88 42 55 2 0 8 49 50 32 68 112 373 588 842 117 0 0 968 476 382 252 400 303 142 80
6 4 3 1 1 1 0 0 0 0 0 0 0 0 0 0 0 0 86 130 57 76 87 48 0 14 3 7 134 21 87 154 439 675 822 111 515 930 625 521 409 346 451 438 108
6 5 6 2 1 0 0 0 0 0 0 0 0 0 0 0 0 0 48 77 23 5 0 18 2 27 19 127 22 0 6 90 39 236 553 698 951 856 818 701 609 348 445 452 341
7 7 5 4 0 0 0 0 0 0 0 0 0 0 0 0 0 0 0 1 0 0 0 0 22 26 39 274 0 0 0 42 96 186 100 420 969 951 799 845 842 555 335 358 447
5 4 2 0 0 0 0 0 0 0 0 0 0 0 0 0 0 0 0 0 0 0 0 3 143 205 289 0 0 0 0 0 0 126 38 9 619 465 920 801 975 736 479 299 354
6 4 1 0 0 0 0 0 0 0 0 0 0 0 0 0 0 0 0 0 0 0 0 0 69 157 63 0 0 0 0 0 0 1 158 120 396 50 181 901 866 962 741 398 245
3 4 0 3 0 0 0 0 0 0 62 0 0 0 0 0 0 0 0 0 0 0 0 0 53 43 31 31 6 0 0 0 0 0 24 139 113 215 334 596 877 941 886 622 250
3 2 0 0 0 0 0 0 0 0 92 0 0 0 0 0 0 0 0 0 0 0 0 0 1 0 0 0 0 0 0 0 0 0 176 141 107 343 182 234 925 782 987 805 426
0 0 0 0 0 0 0 0 25 155 85 0 0 0 0 0 0 0 0 0 0 0 0 0 0 0 0 0 0 0 0 0 3 21 293 186 69 63 35 57 144 904 875 950 635
0 0 0 0 0 0 0 54 223 105 30 0 0 0 0 0 0 0 0 0 0 0 0 0 0 0 0 0 0 0 0 0 17 46 320 372 19 360 18 375 770 964 984 954 835
0 0 0 0 0 0 0 376 212 19 5 0 0 0 0 0 0 0 0 0 0 0 0 2 0 0 0 0 0 0 0 0 0 0 363 404 103 128 23 550 610 735 1039 967 895
0 0 2 0 0 0 110 2 16 0 5 21 18 2 35 0 0 0 0 0 23 3 0 0 1 0 0 0 0 0 0 0 0 31 451 92 77 28 272 1142 755 635 830 974 923
0 76 0 0 0 17 293 62 0 6 79 10 45 231 61 0 0 2 68 78 3 6 0 0 0 0 0 0 0 0 0 0 0 3 204 474 229 221 311 1340 1280 1247 1270 706 1081
111 234 0 0 44 256 25 5 3 4 20 34 113 171 231 39 14 57 253 158 0 0 0 0 0 0 4 0 0 0 1 28 0 32 98 776 572 605 792 1098 1466 1875 1945 1610 1425
223 0 0 0 211 13 0 0 0 18 4 51 33 25 37 129 247 284 221 45 0 10 86 50 0 4 97 75 10 0 0 0 0 24 175 345 1003 1251 1510 1852 2715 3432 2937 1925 1967
246 108 0 0 2 11 1 2 5 0 0 3 8 1 0 1 8 215 46 43 3 0 292 0 0 0 24 18 83 0 0 19 0 4 314 311 589 1371 1604 1740 1992 2350 3814 3123 2669
105 58 80 212 106 2 0 0 10 38 1 0 26 0 2 66 68 13 57 44 0 7 0 7 5 67 89 34 126 45 75 26 48 39 43 1 661 1657 1497 1891 2372 2750 3080 3590 3461
25 44 50 1 0 0 1 39 0 0 0 3 0 0 0 0 130 295 198 30 85 161 41 0 48 81 149 74 12 29 38 7 9 16 19 166 1468 1605 1338 1527 1839 2310 2494 2596 2711
0 0 21 5 0 0 66 5 0 0 0 0 0 0 0 16 4 7 0 0 0 7 22 0 10 107 138 100 52 87 11 4 106 71 131 561 1106 1147 1101 1070 1283 1593 2212 2295 1925